KNUWKFHR

Guest
Details From KNUW - WHIDBEY ISLAND NAS
To KFHR - FRIDAY HARBOR
Flight Number -
Tags decoded
Created
Modified
Stats Distance 18 nm / 33 km
Max Altitude 0 ft / 0 m
Waypoints 2
Social Downloads 0
Likes 0
Share VATSIM

Download

Looking for another format? Having issues loading an existing format? Contact us
Advertisement - Login to hide

Notes

Requested: KNUW YYJ KFHR

Route

KNUW KFHR

ID Type Via Altitude Latitude Longitude Leg Dist Tot Dist Heading (true) Name
O KNUW APT - 0 ft / 0 m 48.35180˚ -122.65591˚ - 0 nm - WHIDBEY ISLAND NAS
O KFHR APT - 0 ft / 0 m 48.52197˚ -123.02437˚ 17 nm 17 nm 305° / 305° FRIDAY HARBOR

Altitude Profile

Advertisement - Login to hide

KNUW

Details ICAO KNUW (NUW)
Name WHIDBEY ISLAND NAS
Region United States
Timezone America/Los_Angeles (UTC-8.0)
Stats Elevation 47 ft / 14 m (AMSL)
Location 48.351803° -122.655907°
Runways 2
Magnetic Variation 15.967° E

METAR

KNUW 110656Z 12005KT 7SM BCFG FEW010 FEW200 02/M01 A3038 RMK AO2 SLP286 T00171006 $

Decode

TAF

TAF KNUW 1107/1207 VRB05KT 9000 BCFG SCT007 SCT200 QNH3029INS TEMPO 1109/1115 0800 FG BKN005 BKN200 FM111800 11008KT 9999 FEW009 SCT200 QNH3027INS FM120400 VRB06KT 9000 BCFG FEW009 SCT250 QNH3034INS T00/1113Z T08/1121Z FS30085

Decode

Departure Runways

ID Width Length Bearing (true) Bearing (mag) Surface Threshold Offset Overrun Length
07 200 ft / 61 m 7,977 ft / 2,432 m 86.95° 70.98° Concrete 0 ft / 0 m 1,000 ft / 305 m
13 200 ft / 61 m 7,999 ft / 2,438 m 154.71° 138.74° Concrete 0 ft / 0 m 1,000 ft / 305 m
25 200 ft / 61 m 7,977 ft / 2,432 m 266.97° 251.00° Concrete 0 ft / 0 m 1,000 ft / 305 m
31 200 ft / 61 m 7,999 ft / 2,438 m 334.72° 318.75° Concrete 0 ft / 0 m 1,000 ft / 305 m

KFHR

Details ICAO KFHR (FRD)
Name FRIDAY HARBOR
Region United States
Timezone America/Los_Angeles (UTC-8.0)
Stats Elevation 113 ft / 34 m (AMSL)
Location 48.521966° -123.024368°
Runways 1
Magnetic Variation 16.074° E

METAR

KFHR 110653Z AUTO 35003KT 10SM CLR 04/03 A3034 RMK AO2 SLP274 T00390033 $

Decode

TAF

Not found

Destination Runways

ID Width Length Bearing (true) Bearing (mag) Surface Threshold Offset Overrun Length
16 75 ft / 23 m 3,402 ft / 1,037 m 177.06° 160.99° Asphalt 0 ft / 0 m 0 ft / 0 m
34 75 ft / 23 m 3,402 ft / 1,037 m 357.06° 340.99° Asphalt 0 ft / 0 m 0 ft / 0 m

Popular Alternatives